Regional Weather Roundup
Issued by NWS

Home | Current Version | Previous Version | Graphics & Text | Print | Product List | Glossary On
Versions: 1 2 3 4 5 6 7 8 9 10 11 12 13 14 15 16 17 18 19 20 21 22 23 24 25 26 27 28
000
ASUS45 KPSR 292210
RWRAZ

ARIZONA HOURLY REGIONAL WEATHER ROUNDUP
NATIONAL WEATHER SERVICE PHOENIX AZ
300 PM MST SAT APR 29 2017

NOTE: FAIR INDICATES FEW OR NO CLOUDS BELOW 12,000 FEET WITH NO
SIGNIFICANT WEATHER AND/OR OBSTRUCTIONS TO VISIBILITY.

AZZ001>003-036-292300-
NORTHWEST ARIZONA

CITY           SKY/WX    TMP DP  RH WIND       PRES   REMARKS
BULLHEAD CITY  SUNNY     79  19  11 N18G30    29.97F
KINGMAN        SUNNY     69  21  16 N24G33    30.05S
$$

AZZ004>008-015-016-018-292300-
NORTH CENTRAL ARIZONA

CITY           SKY/WX    TMP DP  RH WIND       PRES   REMARKS
GRAND CANYON   PTSUNNY   54  13  19 NE15G22   30.07R
WILLIAMS       PTSUNNY   50  12  22 N13G22    30.06R
PRESCOTT       MOSUNNY   62  12  14 N16G33    30.01S
FLAGSTAFF      PTSUNNY   51   8  17 N8G24     30.04R
PAYSON         PTSUNNY   59  14  17 VRB6G18   30.01S
PAGE           MOSUNNY   63  16  16 VRB7      30.00S
$$

AZZ009>014-017-292300-
NORTHEAST ARIZONA

CITY           SKY/WX    TMP DP  RH WIND       PRES   REMARKS
WINSLOW        MOSUNNY   61  16  17 N21G32    29.99S
SAINT JOHNS    PTSUNNY   50  27  40 NW16G24   29.97F
WINDOW ROCK    HVY SNOW  34  30  85 N16G30    30.03R VSB 1/4 WCI  24
SHOW LOW       MOSUNNY   45  25  45 N9G22     30.02F THUNDER
$$

AZZ540-542>544-546-548-292300-
GREATER PHOENIX AREA

CITY           SKY/WX    TMP DP  RH WIND       PRES   REMARKS
PHOENIX        MOSUNNY   78  19  11 VRB6G18   29.88F
BUCKEYE        SUNNY     81  18   9 NW16G24   29.91S
LUKE AFB       SUNNY     80  22  11 W20G26    29.86F
DEER VALLEY    SUNNY     78  18  10 SW14G22   29.88F
SCOTTSDALE     SUNNY     79  18  10 W16       29.90F
MESA-GATEWAY   MOSUNNY   75  19  12 W13G23    29.91F
$$

AZZ539-553-292300-
SOUTHWEST MARICOPA COUNTY AND PINAL COUNTY

CITY           SKY/WX    TMP DP  RH WIND       PRES   REMARKS
CASA GRANDE    SUNNY     75  18  11 NW16G26   29.92F
GILA BEND      SUNNY     79  15   9 NW17      29.91S
$$

AZZ503-504-507>509-292300-
SOUTHEAST ARIZONA

CITY           SKY/WX    TMP DP  RH WIND       PRES   REMARKS
TUCSON         SUNNY     72  13  10 NW15G26   29.96S
DAVIS-MONTHAN  SUNNY     70  11  10 NW14G26   29.95S
RYAN FIELD     SUNNY     72  10   9 NW12G23   29.96F
NOGALES        SUNNY     71   3   7 NW13G23   29.96F
SIERRA VISTA   SUNNY     64   1   8 NW23G31   29.98F
DOUGLAS        SUNNY     69   0   6 NW20G36   29.93S
SAFFORD        MOSUNNY   71  14  11 NW22G32   29.87F
$$

AZZ532-292300-
SOUTHWEST ARIZONA

CITY           SKY/WX    TMP DP  RH WIND       PRES   REMARKS
YUMA           SUNNY     84  18   8 N15       29.95F
$$

CAZ041-043-047-048-061-525>527-560>570-292300-
SOUTHERN CALIFORNIA

CITY           SKY/WX    TMP DP  RH WIND       PRES   REMARKS
DOWNTOWN L.A.  SUNNY     80  21  11 W8        29.98S
L.A. AIRPORT   SUNNY     78  29  16 W15       30.00S
SAN DIEGO      MOSUNNY   79  32  18 NW10      29.99R
BURBANK        SUNNY     81  16   9 S15       29.98S
ONTARIO        SUNNY     85  10   6 NE23G35   29.98F
RIVERSIDE      SUNNY     84  16   8 N13G23    29.98F
PALM SPRINGS   SUNNY     84  13   7 SW9G18    30.01F
EL CENTRO NAS  SUNNY     84  12   6 NW14G23   29.99F
IMPERIAL       SUNNY     85  23  10 N14G22    29.96F
BLYTHE         MOSUNNY   85  15   7 N24G33    29.95F
NEEDLES        SUNNY     83  18   9 NE23G30   29.99F
$$

NVZ020-UTZ003-292300-
SOUTHERN NEVADA-UTAH

CITY           SKY/WX    TMP DP  RH WIND       PRES   REMARKS
LAS VEGAS      MOSUNNY   75  11   8 NW7       30.04F
SALT LAKE CITY PTSUNNY   55  27  34 NW16      30.19S
$$

NMZ009-TXZ055-292300-
NEW MEXICO-WEST TEXAS

CITY           SKY/WX    TMP DP  RH WIND       PRES   REMARKS
ALBUQUERQUE    PTSUNNY   47  29  49 N7        29.93S
EL PASO        MOSUNNY   56  31  38 N22G28    29.89F
$$


........................KEY........................
SKY/WX - SKY CONDITION/WEATHER
TMP    - TEMPERATURE IN FAHRENHEIT
DP     - DEW POINT IN FAHRENHEIT
RH     - RELATIVE HUMIDITY IN PERCENT
WIND   - DIRECTION AND SPEED IN MILES PER HOUR (MPH)
VRB    - VARIABLE WIND DIRECTION
PRES   - MEAN SEA LEVEL PRESSURE IN INCHES OF MERCURY
         F - FALLING PRESSURE   R - RISING PRESSURE
         S - STEADY PRESSURE
VSB    - VISIBILITY IN MILES
HX     - HEAT INDEX IN FAHRENHEIT
WCI    - WIND CHILL INDEX IN FAHRENHEIT
TC     - TEMPERATURE IN CELSIUS WHICH IS ALSO KNOWN AS
         TEMPERATURE IN CENTIGRADE
AFB    - AIR FORCE BASE
         LUKE AFB IS LUKE AIR FORCE BASE
         DAVIS-MONTHAN IS DAVIS-MONTHAN AIR FORCE BASE
NAS    - NAVAL AIR STATION
         EL CENTRO NAS IS EL CENTRO NAVAL AIR STATION
N/A    - NOT AVAILABLE





USA.gov is the U.S. government's official web portal to all federal, state and local government web resources and services.